EW5413 Weather Reports


time (UTC)temp
F
wind
direction
speed
knots
gust
knots
rain 1hr
in
rain 24hr
in
rain mn
in
humidity
%
barometer
mb
20260508050032 47 158 4.3 9.6 0.00 0.01 0.01 70 1007.7
20260508045040 47 225 5.2 12.2 0.00 0.01 0.01 70 1007.6
20260508044019 47 180 2.6 7.0 0.00 0.01 0.01 70 1007.5
20260508043028 47 158 3.5 7.0 0.00 0.01 0.01 70 1007.5
20260508042030 47 158 4.3 9.6 0.00 0.01 0.01 70 1007.4
20260508041039 47 203 3.5 9.6 0.00 0.01 0.01 69 1007.4
20260508040028 47 180 3.5 9.6 0.00 0.01 0.01 68 1007.2
20260508035020 47 225 3.5 12.2 0.00 0.01 0.01 67 1007.1
20260508034019 48 225 4.3 8.7 0.00 0.01 0.01 65 1007.1
20260508033110 48 180 6.1 11.3 0.00 0.01 0.01 63 1007.0
20260508032031 48 158 7.0 15.6 0.00 0.01 0.01 62 1007.0
20260508031030 48 225 7.0 13.9 0.00 0.01 0.01 63 1007.0
20260508030028 48 180 5.2 13.0 0.00 0.01 0.01 63 1006.9
20260508025019 48 180 5.2 15.6 0.00 0.01 0.01 63 1006.9
20260508024020 48 180 5.2 13.9 0.00 0.01 0.01 66 1006.9
20260508023028 48 203 7.0 18.2 0.00 0.01 0.01 66 1006.8
20260508022032 48 180 6.1 12.2 0.00 0.01 0.01 66 1006.5
20260508021019 48 180 6.1 14.8 0.00 0.01 0.01 66 1006.7
20260508020028 48 180 6.1 16.5 0.00 0.01 0.01 66 1006.5
20260508015028 48 180 6.1 12.2 0.00 0.01 0.01 67 1006.5
20260508014019 48 225 5.2 11.3 0.00 0.01 0.01 66 1006.6
20260508013111 48 203 5.2 13.9 0.00 0.01 0.01 66 1006.4
20260508012029 48 158 4.3 13.9 0.00 0.01 0.01 67 1006.4
20260508011019 48 180 5.2 11.3 0.00 0.01 0.01 69 1006.4
20260508010019 47 158 2.6 9.6 0.00 0.01 0.01 70 1006.4
20260508005019 47 225 3.5 8.7 0.00 0.01 0.01 70 1006.4
20260508004029 48 180 1.7 6.1 0.00 0.01 0.01 69 1006.3
20260508003018 48 158 7.8 12.2 0.00 0.01 0.01 69 1006.4
20260508002020 47 158 3.5 7.8 0.00 0.01 0.01 70 1006.3
20260508001040 47 158 4.3 7.8 0.00 0.01 0.01 68 1006.3
20260508000037 48 180 3.5 7.0 0.01 0.01 0.01 68 1006.3
20260507235028 48 158 4.3 10.4 0.01 0.01 0.01 69 1006.3
20260507234036 47 180 4.3 11.3 0.01 0.01 0.01 73 1006.3
20260507233027 47 135 0.9 3.5 0.01 0.01 0.01 75 1006.3
20260507232040 47 158 3.5 7.8 0.01 0.01 0.01 75 1006.3
20260507231018 47 180 3.5 9.6 0.01 0.01 0.01 76 1006.3
20260507230019 47 158 2.6 9.6 0.00 0.00 0.00 76 1006.4
20260507225019 48 158 1.7 6.1 0.00 0.00 0.00 75 1006.3
20260507224019 48 158 7.0 10.4 0.00 0.00 0.00 74 1006.2
20260507223254 48 158 7.0 10.4 0.00 0.00 0.00 75 1006.1
20260507222019 48 158 7.8 11.3 0.00 0.00 0.00 75 1006.2
20260507221027 48 158 7.0 10.4 0.00 0.00 0.00 76 1006.0
20260507220018 48 158 7.0 10.4 0.00 0.00 0.00 77 1006.0
20260507215030 48 135 3.5 6.1 0.00 0.00 0.00 77 1006.0
20260507214027 49 158 5.2 7.0 0.00 0.00 0.00 75 1006.0
20260507213108 48 158 2.6 6.1 0.00 0.00 0.00 76 1006.1
20260507212030 48 158 2.6 5.2 0.00 0.00 0.00 77 1006.1
20260507211018 48 135 1.7 7.0 0.00 0.00 0.00 76 1006.1
20260507210018 49 0.0 2.6 0.00 0.00 0.00 75 1006.1
20260507205019 49 158 6.1 9.6 0.00 0.00 0.00 75 1006.1
20260507204027 49 0.0 1.7 0.00 0.00 0.00 75 1006.0
20260507203018 49 0.0 1.7 0.00 0.00 0.00 75 1006.0
20260507202200 49 158 3.5 5.2 0.00 0.00 0.00 75 1006.0
20260507201027 49 113 5.2 8.7 0.00 0.00 0.00 74 1005.8
20260507200109 49 113 4.3 7.8 0.00 0.00 0.00 74 1005.6
20260507195028 50 135 5.2 8.7 0.00 0.00 0.00 72 1005.7
20260507194019 50 158 7.0 12.2 0.00 0.00 0.00 72 1005.7
20260507193020 50 158 8.7 13.0 0.00 0.00 0.00 71 1005.6
20260507192030 51 158 10.4 15.6 0.00 0.00 0.00 69 1005.6
20260507191038 51 158 8.7 13.0 0.00 0.00 0.00 68 1005.4
20260507190020 51 158 7.8 11.3 0.00 0.00 0.00 70 1005.5
20260507185048 50 113 4.3 8.7 0.00 0.00 0.00 73 1005.6
20260507184018 50 135 5.2 7.8 0.00 0.00 0.00 72 1005.6
20260507183029 50 158 7.8 10.4 0.00 0.00 0.00 72 1005.7
20260507182028 50 158 7.8 12.2 0.00 0.01 0.00 72 1005.5
20260507181020 51 180 3.5 7.8 0.00 0.01 0.00 69 1005.8
20260507180028 52 158 14.8 20.0 0.00 0.01 0.00 68 1005.5
20260507175215 53 158 12.2 17.4 0.00 0.01 0.00 67 1005.5
20260507174020 53 158 11.3 15.6 0.00 0.01 0.00 67 1005.6
20260507173021 53 158 9.6 13.9 0.00 0.01 0.00 68 1005.7
20260507172039 53 158 9.6 15.6 0.00 0.01 0.00 66 1005.6
20260507171049 53 158 7.8 13.9 0.00 0.01 0.00 65 1005.7
20260507170021 53 158 10.4 16.5 0.00 0.01 0.00 65 1005.7
20260507165028 53 158 13.0 18.2 0.00 0.01 0.00 64 1005.9
20260507164027 53 158 14.8 20.0 0.00 0.01 0.00 65 1005.8
20260507163030 53 158 18.2 26.1 0.00 0.01 0.00 62 1005.8
20260507162020 54 158 10.4 19.1 0.00 0.01 0.00 61 1005.7
20260507161030 55 158 6.1 12.2 0.00 0.01 0.00 59 1005.6
20260507160029 55 158 7.0 16.5 0.00 0.01 0.00 59 1005.5
20260507155030 55 158 6.1 13.0 0.00 0.01 0.00 58 1005.4
20260507154019 55 180 4.3 9.6 0.00 0.01 0.00 58 1005.5
20260507153038 55 158 3.5 9.6 0.00 0.01 0.00 57 1005.4
20260507152020 56 158 4.3 11.3 0.00 0.01 0.00 56 1005.6
20260507151027 56 158 13.9 20.9 0.00 0.01 0.00 56 1005.8
20260507150025 56 158 7.8 11.3 0.00 0.01 0.00 56 1005.8
20260507145020 56 158 6.1 13.0 0.00 0.01 0.00 56 1005.7
20260507144041 56 158 7.0 13.0 0.00 0.01 0.00 55 1005.8
20260507143029 56 158 7.0 13.0 0.00 0.01 0.00 56 1005.9
20260507142029 56 158 10.4 18.2 0.00 0.01 0.00 55 1006.0
20260507141020 55 158 9.6 15.6 0.00 0.01 0.00 55 1006.2
20260507140033 55 158 9.6 16.5 0.00 0.01 0.00 55 1006.2
20260507135021 55 158 10.4 21.7 0.00 0.01 0.00 56 1006.1
20260507134049 56 158 13.0 21.7 0.00 0.01 0.00 55 1006.1
20260507133042 56 158 13.0 20.0 0.00 0.01 0.00 55 1006.3
20260507132021 55 158 8.7 15.6 0.00 0.01 0.00 55 1006.2
20260507131020 55 158 10.4 20.0 0.00 0.01 0.00 57 1006.2
20260507130030 55 158 8.7 20.0 0.00 0.01 0.00 55 1006.3
20260507125029 55 158 11.3 19.1 0.00 0.01 0.00 55 1006.2
20260507124021 55 158 13.9 20.9 0.00 0.01 0.00 54 1006.3
20260507123040 56 158 10.4 19.1 0.00 0.01 0.00 57 1006.2
20260507122028 55 158 12.2 21.7 0.00 0.01 0.00 55 1006.5
20260507121028 55 158 10.4 20.9 0.00 0.01 0.00 58 1006.3
20260507120021 54 158 11.3 17.4 0.00 0.01 0.00 57 1006.3
20260507115040 55 158 10.4 15.6 0.00 0.01 0.00 57 1006.4
20260507114029 54 158 7.0 13.9 0.00 0.01 0.00 58 1006.4
20260507113029 54 158 8.7 12.2 0.00 0.01 0.00 57 1006.4
20260507112020 54 158 7.8 12.2 0.00 0.01 0.00 58 1006.5
20260507111029 54 158 12.2 17.4 0.00 0.01 0.00 58 1006.6
20260507110020 53 158 10.4 16.5 0.00 0.01 0.00 61 1006.5
20260507105028 53 158 9.6 16.5 0.00 0.01 0.00 58 1006.5
20260507104029 54 158 15.6 20.9 0.00 0.01 0.00 59 1006.6
20260507103020 54 158 12.2 20.0 0.00 0.01 0.00 59 1006.6
20260507102020 53 158 11.3 15.6 0.00 0.01 0.00 59 1006.6
20260507101020 52 158 11.3 17.4 0.00 0.01 0.00 61 1006.6
20260507100025 52 158 7.8 11.3 0.00 0.01 0.00 61 1006.7
20260507095020 51 158 6.1 9.6 0.00 0.01 0.00 64 1006.5
20260507094050 51 158 7.0 12.2 0.00 0.01 0.00 63 1006.6
20260507093029 50 158 6.1 10.4 0.00 0.01 0.00 63 1006.7
20260507092019 50 158 5.2 9.6 0.00 0.01 0.00 62 1006.8
20260507091020 50 158 6.1 12.2 0.00 0.01 0.00 63 1006.8
20260507090020 50 158 7.0 12.2 0.00 0.01 0.00 63 1006.8
20260507085048 50 158 7.0 14.8 0.00 0.01 0.00 63 1006.8
20260507084039 49 180 6.1 13.9 0.00 0.01 0.00 63 1006.8
20260507083019 49 158 5.2 8.7 0.00 0.01 0.00 63 1007.0
20260507082040 49 158 5.2 8.7 0.00 0.01 0.00 63 1007.0
20260507081020 49 158 6.1 9.6 0.00 0.01 0.00 63 1007.0
20260507080020 49 158 7.0 12.2 0.00 0.01 0.00 62 1007.0
20260507075028 49 158 4.3 8.7 0.00 0.01 0.00 63 1007.0
20260507074028 49 158 2.6 8.7 0.00 0.01 0.00 64 1007.0
20260507073019 49 135 3.5 7.8 0.00 0.01 0.00 65 1007.1
20260507072019 48 158 4.3 7.0 0.00 0.01 0.00 66 1007.0
20260507071019 47 135 2.6 5.2 0.00 0.01 0.00 68 1007.0
20260507070049 47 135 2.6 7.0 0.00 0.01 0.00 67 1007.1
20260507065019 47 45 0.9 5.2 0.00 0.01 0.00 68 1007.1
20260507064040 47 113 2.6 7.0 0.00 0.01 0.00 67 1007.2
20260507063037 47 135 4.3 11.3 0.00 0.01 0.00 68 1007.3
20260507062019 47 135 1.7 5.2 0.00 0.01 0.00 67 1007.4
20260507061048 47 113 3.5 10.4 0.00 0.01 0.00 67 1007.5
20260507060029 47 113 2.6 6.1 0.00 0.01 0.00 67 1007.6
20260507055033 47 158 3.5 8.7 0.00 0.01 0.00 67 1007.5
20260507054040 46 158 2.6 7.8 0.00 0.01 0.00 67 1007.4
20260507053019 46 135 2.6 6.1 0.00 0.01 0.00 67 1007.5
20260507052021 46 180 3.5 7.0 0.00 0.01 0.00 67 1007.5
20260507051019 46 158 3.5 6.1 0.00 0.01 0.00 67 1007.6